TimeEDT,TemperatureF,Dew PointF,Humidity,Sea Level PressureIn,VisibilityMPH,Wind Direction,Wind SpeedMPH,Gust SpeedMPH,PrecipitationIn,Events,Conditions,WindDirDegrees,DateUTC
12:15 AM,48.2,42.3,80,29.94,10.0,WSW,6.9,-,N/A,,Overcast,240,2012-10-06 04:15:00
12:35 AM,48.2,42.4,80,29.94,10.0,WSW,5.8,-,N/A,,Overcast,240,2012-10-06 04:35:00
12:55 AM,47.7,42.4,82,29.94,10.0,WSW,8.1,-,N/A,,Overcast,240,2012-10-06 04:55:00
1:15 AM,47.5,42.4,83,29.93,10.0,WSW,5.8,-,N/A,,Overcast,240,2012-10-06 05:15:00
1:36 AM,47.3,41.9,82,29.93,10.0,WSW,4.6,-,N/A,,Overcast,240,2012-10-06 05:36:00
1:55 AM,47.5,41.7,80,29.92,10.0,WSW,4.6,-,N/A,,Overcast,240,2012-10-06 05:55:00
2:15 AM,47.3,41.4,80,29.93,10.0,WSW,5.8,-,N/A,,Overcast,240,2012-10-06 06:15:00
2:55 AM,44.6,40.1,84,29.92,10.0,WSW,5.8,-,N/A,,Clear,240,2012-10-06 06:55:00
3:15 AM,44.6,39.7,83,29.92,10.0,SW,5.8,-,N/A,,Clear,230,2012-10-06 07:15:00
3:35 AM,43.7,39.9,87,29.92,10.0,WSW,3.5,-,N/A,,Scattered Clouds,240,2012-10-06 07:35:00
3:55 AM,42.8,39.4,88,29.92,10.0,WSW,4.6,-,N/A,,Scattered Clouds,250,2012-10-06 07:55:00
4:15 AM,42.6,38.8,86,29.92,10.0,WSW,3.5,-,N/A,,Scattered Clouds,240,2012-10-06 08:15:00
4:35 AM,42.3,38.5,86,29.92,10.0,SW,3.5,-,N/A,,Mostly Cloudy,230,2012-10-06 08:35:00
4:55 AM,41.5,38.8,90,29.92,10.0,SW,3.5,-,N/A,,Mostly Cloudy,230,2012-10-06 08:55:00
5:35 AM,41.2,39.0,92,29.92,10.0,WSW,4.6,-,N/A,,Scattered Clouds,240,2012-10-06 09:35:00
5:55 AM,41.0,38.7,91,29.93,10.0,WSW,4.6,-,N/A,,Mostly Cloudy,240,2012-10-06 09:55:00
6:15 AM,40.6,37.9,90,29.93,10.0,WSW,4.6,-,N/A,,Scattered Clouds,240,2012-10-06 10:15:00
6:35 AM,39.9,37.4,91,29.94,10.0,WSW,5.8,-,N/A,,Clear,250,2012-10-06 10:35:00
6:55 AM,41.2,36.9,85,29.94,10.0,West,8.1,-,N/A,,Mostly Cloudy,260,2012-10-06 10:55:00
7:15 AM,41.9,36.3,81,29.96,10.0,WSW,6.9,-,N/A,,Overcast,250,2012-10-06 11:15:00
7:36 AM,41.9,36.0,79,29.95,10.0,West,8.1,-,N/A,,Overcast,260,2012-10-06 11:36:00
7:55 AM,42.4,35.2,76,29.96,10.0,WSW,5.8,-,N/A,,Overcast,250,2012-10-06 11:55:00
8:15 AM,43.0,34.9,73,29.97,10.0,WSW,6.9,-,N/A,,Overcast,250,2012-10-06 12:15:00
8:36 AM,43.2,35.1,73,29.98,10.0,West,8.1,-,N/A,,Overcast,260,2012-10-06 12:36:00
8:55 AM,43.7,34.3,70,29.98,10.0,West,6.9,-,N/A,,Overcast,260,2012-10-06 12:55:00
9:15 AM,44.6,33.6,65,29.99,10.0,West,8.1,-,N/A,,Overcast,260,2012-10-06 13:15:00
9:36 AM,44.8,33.4,64,30.00,10.0,West,8.1,-,N/A,,Overcast,260,2012-10-06 13:36:00
9:55 AM,45.5,33.1,62,30.00,10.0,West,10.4,-,N/A,,Overcast,260,2012-10-06 13:55:00
10:15 AM,45.7,32.7,61,30.00,10.0,West,13.8,18.4,N/A,,Overcast,260,2012-10-06 14:15:00
10:35 AM,46.2,32.4,58,30.00,10.0,West,10.4,-,N/A,,Overcast,270,2012-10-06 14:35:00
10:55 AM,47.1,32.7,57,30.00,10.0,WNW,12.7,23.0,N/A,,Overcast,290,2012-10-06 14:55:00
11:15 AM,47.1,32.5,57,30.01,10.0,West,16.1,-,N/A,,Overcast,270,2012-10-06 15:15:00
11:35 AM,47.8,33.1,57,30.01,10.0,West,15.0,20.7,N/A,,Overcast,260,2012-10-06 15:35:00
11:55 AM,49.8,32.4,51,30.01,10.0,West,15.0,23.0,N/A,,Overcast,260,2012-10-06 15:55:00
12:15 PM,49.5,32.9,53,30.01,10.0,West,16.1,23.0,N/A,,Mostly Cloudy,280,2012-10-06 16:15:00
12:35 PM,49.3,33.3,54,30.01,10.0,West,16.1,25.3,N/A,,Overcast,270,2012-10-06 16:35:00
12:55 PM,50.4,32.9,51,30.01,10.0,WSW,16.1,20.7,N/A,,Mostly Cloudy,250,2012-10-06 16:55:00
1:15 PM,49.3,31.8,51,30.01,10.0,West,15.0,19.6,N/A,,Mostly Cloudy,280,2012-10-06 17:15:00
1:35 PM,48.9,32.4,53,30.01,10.0,West,13.8,-,N/A,,Mostly Cloudy,270,2012-10-06 17:35:00
1:56 PM,49.1,32.0,52,30.01,10.0,West,15.0,18.4,N/A,,Overcast,280,2012-10-06 17:56:00
2:15 PM,49.1,32.0,52,30.01,10.0,West,13.8,21.9,N/A,,Overcast,280,2012-10-06 18:15:00
2:35 PM,49.1,32.4,53,30.01,10.0,West,16.1,21.9,N/A,,Overcast,260,2012-10-06 18:35:00
2:55 PM,49.1,33.6,55,30.02,10.0,West,12.7,20.7,N/A,,Overcast,270,2012-10-06 18:55:00
3:15 PM,49.5,32.5,52,30.02,10.0,West,16.1,21.9,N/A,,Overcast,260,2012-10-06 19:15:00
3:35 PM,49.3,33.3,54,30.03,10.0,West,12.7,-,N/A,,Overcast,270,2012-10-06 19:35:00
3:55 PM,49.3,32.7,53,30.03,10.0,West,11.5,18.4,N/A,,Overcast,270,2012-10-06 19:55:00
4:15 PM,48.2,34.7,60,30.03,10.0,WSW,12.7,-,N/A,,Overcast,240,2012-10-06 20:15:00
4:36 PM,48.6,34.5,58,30.03,10.0,West,9.2,16.1,N/A,,Overcast,270,2012-10-06 20:36:00
4:55 PM,49.1,33.3,54,30.03,10.0,WSW,11.5,-,N/A,,Overcast,250,2012-10-06 20:55:00
5:15 PM,49.1,33.4,55,30.03,10.0,West,13.8,-,N/A,,Overcast,270,2012-10-06 21:15:00
5:35 PM,49.1,33.3,54,30.03,10.0,WNW,9.2,17.3,N/A,,Overcast,290,2012-10-06 21:35:00
5:55 PM,48.7,33.1,55,30.04,10.0,WNW,10.4,-,N/A,,Overcast,290,2012-10-06 21:55:00
6:15 PM,48.6,33.1,55,30.04,10.0,West,10.4,-,N/A,,Overcast,270,2012-10-06 22:15:00
6:35 PM,48.0,33.1,56,30.05,10.0,West,10.4,17.3,N/A,,Overcast,270,2012-10-06 22:35:00
6:55 PM,47.5,33.8,59,30.06,10.0,West,6.9,-,N/A,,Overcast,280,2012-10-06 22:55:00
7:15 PM,46.9,33.8,60,30.07,10.0,West,8.1,-,N/A,,Overcast,280,2012-10-06 23:15:00
7:35 PM,46.6,34.2,62,30.07,10.0,West,5.8,-,N/A,,Overcast,280,2012-10-06 23:35:00
7:55 PM,46.2,34.9,65,30.08,10.0,West,10.4,-,N/A,,Overcast,280,2012-10-06 23:55:00
8:15 PM,46.0,35.2,66,30.08,10.0,West,9.2,-,N/A,,Overcast,280,2012-10-07 00:15:00
8:35 PM,45.9,35.6,67,30.09,10.0,West,8.1,-,N/A,,Overcast,270,2012-10-07 00:35:00
8:55 PM,45.7,35.6,68,30.09,10.0,WNW,9.2,-,N/A,,Overcast,290,2012-10-07 00:55:00
9:15 PM,44.8,35.2,69,30.10,10.0,WNW,5.8,-,N/A,,Mostly Cloudy,290,2012-10-07 01:15:00
9:35 PM,43.7,35.2,72,30.09,10.0,WNW,6.9,-,N/A,,Mostly Cloudy,300,2012-10-07 01:35:00
9:55 PM,43.9,35.6,73,30.10,10.0,WNW,6.9,-,N/A,,Overcast,300,2012-10-07 01:55:00
10:15 PM,44.1,35.8,73,30.11,10.0,WNW,5.8,-,N/A,,Overcast,300,2012-10-07 02:15:00
10:35 PM,44.1,36.0,73,30.11,10.0,West,3.5,-,N/A,,Overcast,280,2012-10-07 02:35:00
10:56 PM,43.9,36.0,74,30.12,10.0,WNW,3.5,-,N/A,,Overcast,300,2012-10-07 02:56:00
11:15 PM,43.7,36.1,75,30.12,10.0,WNW,3.5,-,N/A,,Overcast,300,2012-10-07 03:15:00
11:35 PM,43.3,36.1,76,30.12,10.0,NW,4.6,-,N/A,,Overcast,310,2012-10-07 03:35:00
11:55 PM,43.2,36.5,77,30.12,10.0,NW,4.6,-,N/A,,Overcast,310,2012-10-07 03:55:00